TimeCST,TemperatureF,Dew PointF,Humidity,Sea Level PressureIn,VisibilityMPH,Wind Direction,Wind SpeedMPH,Gust SpeedMPH,PrecipitationIn,Events,Conditions,WindDirDegrees,DateUTC
12:12 AM,44.6,41.0,87,30.21,10.0,North,5.8,17.3,0.01,Rain,Light Rain,350,2013-12-07 06:12:00
12:24 AM,44.6,41.0,87,30.21,8.0,NNW,5.8,-,0.01,Rain,Light Rain,340,2013-12-07 06:24:00
12:53 AM,43.0,41.0,93,30.22,10.0,North,9.2,-,0.01,,Overcast,360,2013-12-07 06:53:00
1:53 AM,43.0,39.9,89,30.22,10.0,North,10.4,-,0.00,,Overcast,360,2013-12-07 07:53:00
2:03 AM,42.8,39.2,87,30.22,10.0,North,11.5,20.7,N/A,,Overcast,350,2013-12-07 08:03:00
2:53 AM,42.1,39.0,89,30.24,10.0,North,13.8,18.4,N/A,,Overcast,360,2013-12-07 08:53:00
3:29 AM,42.8,39.2,87,30.23,10.0,North,16.1,-,N/A,,Overcast,10,2013-12-07 09:29:00
3:53 AM,42.1,39.0,89,30.24,10.0,North,6.9,-,N/A,,Overcast,350,2013-12-07 09:53:00
4:15 AM,42.8,37.4,81,30.24,10.0,North,12.7,21.9,N/A,,Overcast,360,2013-12-07 10:15:00
4:53 AM,41.0,37.9,89,30.25,10.0,North,11.5,-,N/A,,Overcast,360,2013-12-07 10:53:00
5:53 AM,41.0,37.9,89,30.26,10.0,North,15.0,21.9,N/A,,Overcast,10,2013-12-07 11:53:00
6:53 AM,41.0,37.9,89,30.28,10.0,North,12.7,-,N/A,,Overcast,10,2013-12-07 12:53:00
7:53 AM,41.0,37.9,89,30.30,4.0,North,12.7,-,N/A,,Overcast,10,2013-12-07 13:53:00
8:53 AM,42.1,39.0,89,30.31,8.0,North,11.5,-,N/A,,Overcast,360,2013-12-07 14:53:00
9:53 AM,41.0,37.9,89,30.32,5.0,North,15.0,-,N/A,,Overcast,10,2013-12-07 15:53:00
10:53 AM,41.0,37.9,89,30.32,6.0,North,13.8,-,N/A,,Overcast,10,2013-12-07 16:53:00
11:53 AM,42.1,37.9,85,30.29,7.0,North,17.3,20.7,N/A,,Overcast,10,2013-12-07 17:53:00
12:53 PM,42.1,37.9,85,30.27,8.0,North,15.0,-,N/A,,Overcast,360,2013-12-07 18:53:00
1:53 PM,42.1,37.9,85,30.25,6.0,North,10.4,-,N/A,,Overcast,10,2013-12-07 19:53:00
2:53 PM,42.1,37.9,85,30.25,4.0,NNE,9.2,-,N/A,,Overcast,20,2013-12-07 20:53:00
3:53 PM,42.1,39.0,89,30.25,3.0,North,9.2,-,N/A,,Overcast,10,2013-12-07 21:53:00
4:49 PM,41.0,37.4,87,30.25,2.5,North,9.2,-,N/A,,Overcast,10,2013-12-07 22:49:00
4:53 PM,41.0,37.9,89,30.25,2.5,NNE,9.2,-,N/A,,Overcast,20,2013-12-07 22:53:00
5:10 PM,41.0,37.4,87,30.25,3.0,NNE,9.2,-,N/A,,Overcast,20,2013-12-07 23:10:00
5:53 PM,41.0,37.9,89,30.25,4.0,NNE,9.2,-,N/A,,Overcast,20,2013-12-07 23:53:00
6:53 PM,41.0,37.9,89,30.25,7.0,NNE,5.8,-,N/A,,Overcast,30,2013-12-08 00:53:00
7:53 PM,41.0,37.9,89,30.26,4.0,NNE,5.8,-,N/A,,Overcast,30,2013-12-08 01:53:00
8:53 PM,41.0,39.0,93,30.25,4.0,NNE,5.8,-,N/A,,Overcast,20,2013-12-08 02:53:00
9:41 PM,41.0,39.2,93,30.26,2.5,NE,3.5,-,N/A,,Overcast,40,2013-12-08 03:41:00
9:53 PM,41.0,39.0,93,30.27,2.0,NE,3.5,-,N/A,,Overcast,40,2013-12-08 03:53:00
10:07 PM,41.0,39.2,93,30.27,1.8,NNE,4.6,-,N/A,,Overcast,30,2013-12-08 04:07:00
10:26 PM,41.0,39.2,93,30.27,2.0,NNE,4.6,-,N/A,,Overcast,20,2013-12-08 04:26:00
10:41 PM,41.0,39.2,93,30.26,2.5,North,4.6,-,N/A,,Overcast,10,2013-12-08 04:41:00
10:53 PM,41.0,39.9,96,30.27,2.5,NE,3.5,-,N/A,,Overcast,40,2013-12-08 04:53:00
11:53 PM,42.1,39.9,92,30.25,2.5,North,5.8,-,N/A,,Overcast,10,2013-12-08 05:53:00